Starlink 35322

operational
NORAD ID: 66332 Int'l Des: 2025-253 Owner: SPXS Country: US Constellation: starlink
NOTLE

Über Starlink 35322

Beschreibung wird geladen...

Live-Position

3D-Globus wird geladen...

Nächste Überflüge

Höhenverlauf

Altitude vs Time

uPlot chart will show altitude changes over time

Zweizeiliger Elementsatz

1 66332C 25253P 25310.46020833 .00579790 00000+0 88508-3 0 3109
2 66332 43.0038 203.1760 0006912 237.7941 11.7593 16.02792508 17
Epoch: 6. Nov. 2025 • Age: 25 hours

Aktueller Status

Höhe 271.7 km
Geschwindigkeit 7.75 km/s
Subsatellitenpunkt 43.14°N, 134.92°W
Startdatum 6. Nov. 2025
Alter N/A
Typ internet

Technische Details

Klassifizierung Payload
Masse 575.00 kg
Trockenmasse 530.00 kg
Gesamtmasse 575.00 kg
Länge 0.30 m
Durchmesser 4.10 m
Spannweite 29.00 m
Form Box + pan
Hersteller SPXS
Bus-Typ Starlink V2MO
Phasenstatus In Orbit
Besitzer/Staat SPXS/US

Große Konstellationen

Loading constellations...